IBE3396 LPMA-LEPA

Flight info

Callsign IBE3396
Flight time 2h 15m
Altitude 30000
Route DEGUN DCT NARTA DCT MINTA/N0446F320 N747 YES/N0428F260 M985 ASTRO Z224 LASPO M871 GODOX
Aircraft MD88/M-SDFGIRWY/S

Departure

Time 2026-05-05 15:52
Airport Cristiano Ronaldo International Airport (LPMA)

Arrival

Time 2026-05-05 18:07
Airport Palma de Mallorca Airport (LEPA)
Time Latitude Longitude Altitude Speed Heading
2026-05-05 15:07 32.69417 -16.77596 170 ft 0 kts 138°
2026-05-05 15:41 32.69426 -16.77605 170 ft 4 kts 138°
2026-05-05 15:41 32.69443 -16.77623 170 ft 4 kts 149°
2026-05-05 15:42 32.69464 -16.77629 170 ft 4 kts 197°
2026-05-05 15:42 32.69485 -16.77614 170 ft 4 kts 224°
2026-05-05 15:42 32.69495 -16.77602 170 ft 1 kts 226°
2026-05-05 15:42 32.69496 -16.77601 170 ft 0 kts 226°
2026-05-05 15:45 32.69495 -16.77602 170 ft 1 kts 226°
2026-05-05 15:45 32.69488 -16.77611 170 ft 3 kts 226°
2026-05-05 15:45 32.69466 -16.77638 170 ft 7 kts 226°
2026-05-05 15:46 32.69422 -16.77691 170 ft 11 kts 226°
2026-05-05 15:46 32.69369 -16.77758 170 ft 9 kts 226°
2026-05-05 15:46 32.69334 -16.77800 170 ft 5 kts 226°
2026-05-05 15:46 32.69304 -16.77841 170 ft 9 kts 235°
2026-05-05 15:47 32.69289 -16.77924 170 ft 13 kts 269°
2026-05-05 15:47 32.69288 -16.78001 170 ft 13 kts 264°
2026-05-05 15:47 32.69214 -16.78116 166 ft 14 kts 224°
2026-05-05 15:47 32.69135 -16.78208 162 ft 19 kts 225°
2026-05-05 15:48 32.69044 -16.78315 157 ft 18 kts 225°
2026-05-05 15:48 32.68950 -16.78395 154 ft 15 kts 194°
2026-05-05 15:48 32.68891 -16.78418 154 ft 6 kts 222°
2026-05-05 15:48 32.68882 -16.78444 154 ft 3 kts 268°
2026-05-05 15:49 32.68898 -16.78476 154 ft 6 kts 326°
2026-05-05 15:49 32.68928 -16.78469 154 ft 4 kts 45°
2026-05-05 15:49 32.68944 -16.78435 154 ft 4 kts 61°
2026-05-05 15:49 32.68951 -16.78424 154 ft 0 kts 43°
2026-05-05 15:50 32.68955 -16.78420 154 ft 11 kts 43°
2026-05-05 15:51 32.69178 -16.78158 165 ft 76 kts 45°
2026-05-05 15:51 32.69680 -16.77574 180 ft 124 kts 44°
2026-05-05 15:51 32.70397 -16.76741 209 ft 164 kts 46°
2026-05-05 15:51 32.71192 -16.75737 774 ft 164 kts 43°
2026-05-05 15:52 32.71939 -16.74778 1549 ft 162 kts 64°
2026-05-05 15:52 32.72100 -16.73384 1836 ft 187 kts 106°
2026-05-05 15:52 32.71545 -16.71939 2368 ft 196 kts 112°
2026-05-05 15:52 32.70969 -16.70418 2710 ft 206 kts 110°
2026-05-05 15:53 32.70395 -16.68793 3075 ft 220 kts 111°
2026-05-05 15:53 32.69758 -16.67080 3480 ft 234 kts 112°
2026-05-05 15:53 32.69056 -16.65277 3850 ft 246 kts 114°
2026-05-05 15:53 32.68324 -16.63413 4216 ft 253 kts 114°
2026-05-05 15:54 32.67566 -16.61495 4611 ft 258 kts 115°
2026-05-05 15:54 32.66808 -16.59564 5100 ft 260 kts 115°
2026-05-05 15:54 32.66197 -16.57524 5604 ft 266 kts 101°
2026-05-05 15:54 32.66117 -16.55306 6120 ft 274 kts 83°
2026-05-05 15:55 32.66604 -16.53097 6633 ft 280 kts 65°
2026-05-05 15:55 32.67716 -16.51206 7130 ft 283 kts 47°
2026-05-05 15:55 32.69112 -16.49513 7626 ft 291 kts 44°
2026-05-05 15:55 32.70599 -16.47800 8119 ft 304 kts 44°
2026-05-05 15:56 32.72164 -16.46051 8621 ft 314 kts 43°
2026-05-05 15:56 32.73795 -16.44261 9124 ft 323 kts 42°
2026-05-05 15:56 32.75462 -16.42434 9642 ft 329 kts 42°
2026-05-05 15:56 32.77159 -16.40559 10155 ft 337 kts 43°
2026-05-05 15:57 32.78888 -16.38618 10633 ft 347 kts 43°
2026-05-05 15:57 32.80660 -16.36607 11124 ft 357 kts 43°
2026-05-05 15:57 32.82466 -16.34548 11610 ft 364 kts 43°
2026-05-05 15:57 32.84282 -16.32470 12036 ft 370 kts 43°
2026-05-05 15:58 32.86150 -16.30321 12458 ft 376 kts 43°
2026-05-05 15:58 32.88046 -16.28140 12885 ft 381 kts 42°
2026-05-05 15:58 32.89966 -16.25933 13297 ft 387 kts 43°
2026-05-05 15:58 32.91925 -16.23677 13717 ft 394 kts 42°
2026-05-05 15:59 32.93908 -16.21395 14124 ft 400 kts 43°
2026-05-05 15:59 32.95928 -16.19075 14498 ft 407 kts 42°
2026-05-05 15:59 32.97976 -16.16714 14868 ft 413 kts 42°
2026-05-05 15:59 33.00058 -16.14305 15347 ft 421 kts 43°
2026-05-05 16:00 33.02181 -16.11859 15780 ft 428 kts 42°
2026-05-05 16:00 33.04336 -16.09370 16153 ft 435 kts 42°
2026-05-05 16:00 33.06523 -16.06842 16534 ft 440 kts 42°
2026-05-05 16:00 33.08727 -16.04294 16915 ft 443 kts 42°
2026-05-05 16:01 33.10944 -16.01731 17303 ft 445 kts 42°
2026-05-05 16:01 33.13180 -15.99149 17694 ft 448 kts 42°
2026-05-05 16:01 33.15424 -15.96554 18100 ft 451 kts 42°
2026-05-05 16:01 33.17684 -15.93940 18484 ft 453 kts 42°
2026-05-05 16:02 33.19957 -15.91314 18835 ft 455 kts 42°
2026-05-05 16:02 33.22236 -15.88678 19185 ft 457 kts 42°
2026-05-05 16:02 33.24529 -15.86021 19541 ft 460 kts 42°
2026-05-05 16:02 33.26830 -15.83351 19899 ft 463 kts 42°
2026-05-05 16:03 33.29138 -15.80660 20271 ft 465 kts 42°
2026-05-05 16:03 33.31459 -15.77954 20632 ft 468 kts 42°
2026-05-05 16:03 33.33768 -15.75265 21001 ft 470 kts 42°
2026-05-05 16:03 33.36123 -15.72525 21377 ft 473 kts 42°
2026-05-05 16:04 33.38491 -15.69773 21771 ft 476 kts 42°
2026-05-05 16:04 33.40878 -15.66999 22150 ft 479 kts 42°
2026-05-05 16:04 33.43285 -15.64215 22540 ft 482 kts 41°
2026-05-05 16:04 33.45716 -15.61442 22944 ft 484 kts 41°
2026-05-05 16:05 33.48171 -15.58669 23354 ft 486 kts 41°
2026-05-05 16:05 33.50643 -15.55892 23746 ft 488 kts 41°
2026-05-05 16:05 33.53126 -15.53103 24088 ft 491 kts 41°
2026-05-05 16:05 33.55624 -15.50296 24442 ft 492 kts 41°
2026-05-05 16:06 33.58127 -15.47476 24786 ft 494 kts 41°
2026-05-05 16:06 33.60637 -15.44643 25143 ft 495 kts 41°
2026-05-05 16:06 33.63146 -15.41805 25501 ft 496 kts 41°
2026-05-05 16:06 33.65662 -15.38956 25860 ft 497 kts 41°
2026-05-05 16:07 33.68184 -15.36099 26223 ft 497 kts 41°
2026-05-05 16:07 33.70701 -15.33245 26605 ft 497 kts 41°
2026-05-05 16:07 33.73181 -15.30432 26985 ft 497 kts 41°
2026-05-05 16:07 33.75696 -15.27570 27355 ft 498 kts 41°
2026-05-05 16:08 33.78203 -15.24711 27749 ft 498 kts 41°
2026-05-05 16:08 33.80715 -15.21845 28145 ft 497 kts 41°
2026-05-05 16:08 33.83219 -15.18987 28541 ft 496 kts 41°
2026-05-05 16:08 33.85721 -15.16133 28939 ft 494 kts 41°
2026-05-05 16:09 33.88213 -15.13291 29369 ft 493 kts 41°
2026-05-05 16:09 33.90700 -15.10456 29771 ft 492 kts 41°
2026-05-05 16:09 33.93188 -15.07618 29973 ft 495 kts 41°
2026-05-05 16:10 33.98232 -15.01859 30101 ft 504 kts 41°
2026-05-05 16:10 34.03353 -14.96000 30137 ft 511 kts 41°
2026-05-05 16:11 34.08507 -14.90068 30137 ft 513 kts 42°
2026-05-05 16:12 34.18884 -14.78112 30127 ft 516 kts 41°
2026-05-05 16:13 34.31896 -14.63104 30133 ft 518 kts 41°
2026-05-05 16:13 34.37095 -14.57076 30132 ft 518 kts 41°
2026-05-05 16:14 34.46619 -14.45994 30133 ft 519 kts 41°
2026-05-05 16:15 34.57042 -14.33863 30138 ft 520 kts 41°
2026-05-05 16:16 34.67469 -14.21674 30137 ft 520 kts 42°
2026-05-05 16:17 34.75231 -14.12548 30138 ft 520 kts 41°
2026-05-05 16:18 34.83026 -14.03386 30138 ft 519 kts 41°
2026-05-05 16:19 34.90817 -13.94214 30137 ft 519 kts 41°
2026-05-05 16:19 34.98596 -13.85010 30137 ft 520 kts 41°
2026-05-05 16:20 35.08974 -13.72684 30138 ft 520 kts 41°
2026-05-05 16:22 35.21858 -13.57362 30137 ft 521 kts 41°
2026-05-05 16:23 35.32234 -13.44926 30139 ft 523 kts 41°
2026-05-05 16:23 35.39999 -13.35611 30138 ft 524 kts 41°
2026-05-05 16:24 35.45210 -13.29354 30139 ft 524 kts 41°
2026-05-05 16:25 35.52712 -13.20327 30138 ft 525 kts 41°
2026-05-05 16:25 35.60514 -13.10873 30139 ft 525 kts 41°
2026-05-05 16:26 35.70908 -12.98266 30138 ft 524 kts 41°
2026-05-05 16:27 35.76101 -12.91961 30140 ft 524 kts 41°
2026-05-05 16:27 35.81258 -12.85687 30140 ft 524 kts 41°
2026-05-05 16:28 35.86416 -12.79328 30140 ft 525 kts 42°
2026-05-05 16:28 35.91572 -12.72953 30134 ft 525 kts 41°
2026-05-05 16:29 35.96773 -12.66632 30137 ft 524 kts 41°
2026-05-05 16:29 36.01961 -12.60356 30139 ft 521 kts 41°
2026-05-05 16:30 36.06345 -12.53230 30145 ft 531 kts 66°
2026-05-05 16:30 36.08408 -12.44443 30129 ft 534 kts 76°
2026-05-05 16:31 36.10205 -12.35520 30127 ft 535 kts 74°
2026-05-05 16:31 36.12177 -12.26642 30131 ft 535 kts 73°
2026-05-05 16:32 36.14246 -12.17793 30130 ft 535 kts 72°
2026-05-05 16:32 36.16308 -12.08935 30131 ft 536 kts 72°
2026-05-05 16:33 36.18333 -12.00063 30130 ft 536 kts 73°
2026-05-05 16:33 36.20319 -11.91171 30129 ft 536 kts 73°
2026-05-05 16:34 36.22309 -11.82280 30128 ft 535 kts 73°
2026-05-05 16:34 36.24306 -11.73399 30123 ft 535 kts 73°
2026-05-05 16:35 36.26303 -11.64524 30121 ft 535 kts 73°
2026-05-05 16:35 36.28284 -11.55697 30120 ft 535 kts 73°
2026-05-05 16:36 36.30250 -11.46800 30121 ft 535 kts 73°
2026-05-05 16:36 36.32197 -11.37894 30117 ft 535 kts 73°
2026-05-05 16:37 36.34151 -11.28990 30120 ft 535 kts 73°
2026-05-05 16:37 36.36109 -11.20089 30117 ft 535 kts 73°
2026-05-05 16:38 36.38067 -11.11186 30117 ft 535 kts 73°
2026-05-05 16:38 36.40015 -11.02288 30114 ft 534 kts 74°
2026-05-05 16:39 36.41929 -10.93371 30111 ft 534 kts 74°
2026-05-05 16:39 36.43838 -10.84452 30109 ft 534 kts 74°
2026-05-05 16:40 36.45756 -10.75535 30110 ft 534 kts 74°
2026-05-05 16:40 36.47664 -10.66680 30104 ft 534 kts 74°
2026-05-05 16:41 36.49593 -10.57712 30106 ft 534 kts 74°
2026-05-05 16:41 36.51478 -10.48848 30102 ft 534 kts 74°
2026-05-05 16:42 36.53347 -10.39913 30104 ft 534 kts 74°
2026-05-05 16:42 36.55188 -10.31140 30097 ft 534 kts 74°
2026-05-05 16:43 36.57070 -10.22208 30090 ft 534 kts 74°
2026-05-05 16:43 36.58951 -10.13283 30093 ft 534 kts 74°
2026-05-05 16:44 36.60831 -10.04338 30093 ft 534 kts 74°
2026-05-05 16:44 36.62675 -9.95395 30092 ft 534 kts 74°
2026-05-05 16:45 36.64509 -9.86430 30085 ft 534 kts 74°
2026-05-05 16:45 36.66351 -9.77474 30088 ft 533 kts 74°
2026-05-05 16:46 36.68197 -9.68522 30084 ft 534 kts 74°
2026-05-05 16:46 36.70040 -9.59571 30082 ft 533 kts 74°
2026-05-05 16:47 36.71872 -9.50609 30079 ft 534 kts 74°
2026-05-05 16:47 36.73669 -9.41638 30080 ft 534 kts 74°
2026-05-05 16:48 36.75468 -9.32657 30072 ft 534 kts 74°
2026-05-05 16:48 36.77277 -9.23675 30075 ft 534 kts 74°
2026-05-05 16:49 36.79074 -9.14754 30066 ft 534 kts 74°
2026-05-05 16:49 36.80883 -9.05763 30067 ft 534 kts 74°
2026-05-05 16:50 36.82666 -8.96756 30062 ft 534 kts 75°
2026-05-05 16:50 36.84426 -8.87744 30060 ft 535 kts 74°
2026-05-05 16:51 36.86197 -8.78714 30051 ft 535 kts 74°
2026-05-05 16:51 36.87974 -8.69687 30051 ft 535 kts 74°
2026-05-05 16:52 36.89749 -8.60663 30046 ft 535 kts 74°
2026-05-05 16:52 36.91521 -8.51622 30040 ft 536 kts 74°
2026-05-05 16:53 36.93253 -8.42570 30032 ft 536 kts 75°
2026-05-05 16:53 36.94983 -8.33502 30017 ft 536 kts 74°
2026-05-05 16:54 36.96724 -8.24431 30000 ft 537 kts 74°
2026-05-05 16:54 36.98468 -8.15359 29985 ft 537 kts 74°
2026-05-05 16:55 37.00213 -8.06270 29979 ft 537 kts 74°
2026-05-05 16:55 37.01936 -7.97173 29981 ft 538 kts 75°
2026-05-05 16:56 37.03633 -7.88048 29978 ft 538 kts 75°
2026-05-05 16:56 37.05337 -7.78917 29981 ft 539 kts 75°
2026-05-05 16:57 37.07048 -7.69786 29977 ft 539 kts 75°
2026-05-05 16:57 37.08761 -7.60645 29976 ft 539 kts 75°
2026-05-05 16:58 37.10469 -7.51491 29982 ft 540 kts 75°
2026-05-05 16:58 37.12162 -7.42376 29980 ft 541 kts 74°
2026-05-05 16:59 37.13949 -7.34820 29974 ft 539 kts 66°
2026-05-05 16:59 37.17358 -7.24789 29982 ft 538 kts 63°
2026-05-05 17:00 37.19905 -7.17604 29972 ft 539 kts 63°
2026-05-05 17:00 37.22885 -7.08961 29969 ft 540 kts 64°
2026-05-05 17:01 37.25816 -7.00275 29969 ft 541 kts 64°
2026-05-05 17:01 37.28751 -6.91578 29966 ft 541 kts 64°
2026-05-05 17:02 37.31682 -6.82879 29964 ft 541 kts 64°
2026-05-05 17:02 37.34579 -6.74204 29965 ft 541 kts 64°
2026-05-05 17:03 37.37495 -6.65472 29961 ft 541 kts 64°
2026-05-05 17:03 37.40418 -6.56739 29956 ft 542 kts 64°
2026-05-05 17:04 37.43343 -6.47992 29953 ft 542 kts 65°
2026-05-05 17:04 37.46262 -6.39248 29950 ft 542 kts 65°
2026-05-05 17:05 37.49150 -6.30483 29946 ft 542 kts 65°
2026-05-05 17:05 37.52029 -6.21713 29947 ft 542 kts 65°
2026-05-05 17:06 37.54917 -6.12944 29947 ft 542 kts 65°
2026-05-05 17:06 37.57805 -6.04182 29948 ft 541 kts 65°
2026-05-05 17:07 37.60694 -5.95405 29944 ft 541 kts 65°
2026-05-05 17:07 37.63565 -5.86627 29947 ft 542 kts 66°
2026-05-05 17:08 37.66409 -5.77821 29947 ft 542 kts 66°
2026-05-05 17:08 37.69261 -5.69015 29944 ft 542 kts 66°
2026-05-05 17:09 37.72123 -5.60195 29941 ft 542 kts 66°
2026-05-05 17:09 37.74979 -5.51385 29938 ft 542 kts 66°
2026-05-05 17:10 37.77834 -5.42561 29932 ft 542 kts 66°
2026-05-05 17:10 37.80644 -5.33765 29935 ft 543 kts 66°
2026-05-05 17:11 37.83461 -5.24903 29919 ft 543 kts 66°
2026-05-05 17:11 37.86286 -5.16048 29927 ft 543 kts 66°
2026-05-05 17:12 37.89118 -5.07186 29927 ft 543 kts 66°
2026-05-05 17:12 37.91945 -4.98317 29929 ft 543 kts 66°
2026-05-05 17:13 37.94757 -4.89436 29934 ft 543 kts 66°
2026-05-05 17:13 37.97545 -4.80536 29923 ft 543 kts 67°
2026-05-05 17:14 38.00332 -4.71637 29920 ft 543 kts 66°
2026-05-05 17:14 38.03126 -4.62739 29920 ft 543 kts 66°
2026-05-05 17:15 38.05923 -4.53834 29919 ft 543 kts 67°
2026-05-05 17:15 38.08718 -4.44921 29920 ft 543 kts 67°
2026-05-05 17:16 38.11475 -4.35996 29918 ft 544 kts 67°
2026-05-05 17:16 38.14229 -4.27040 29919 ft 544 kts 67°
2026-05-05 17:17 38.16973 -4.18150 29915 ft 544 kts 67°
2026-05-05 17:17 38.19742 -4.09186 29910 ft 545 kts 67°
2026-05-05 17:18 38.22514 -4.00209 29911 ft 545 kts 67°
2026-05-05 17:18 38.25275 -3.91206 29912 ft 547 kts 68°
2026-05-05 17:19 38.28002 -3.82176 29910 ft 547 kts 67°
2026-05-05 17:19 38.30741 -3.73103 29913 ft 551 kts 67°
2026-05-05 17:20 38.33523 -3.63965 29926 ft 555 kts 66°
2026-05-05 17:20 38.36320 -3.54769 29910 ft 557 kts 66°
2026-05-05 17:21 38.39111 -3.45548 29917 ft 558 kts 67°
2026-05-05 17:22 38.43250 -3.31648 29921 ft 559 kts 67°
2026-05-05 17:22 38.46006 -3.22381 29919 ft 559 kts 67°
2026-05-05 17:23 38.48776 -3.13102 29926 ft 559 kts 67°
2026-05-05 17:23 38.51548 -3.03817 29922 ft 560 kts 67°
2026-05-05 17:24 38.54313 -2.94512 29926 ft 560 kts 67°
2026-05-05 17:24 38.57039 -2.85180 29923 ft 561 kts 68°
2026-05-05 17:25 38.59745 -2.75908 29926 ft 561 kts 68°
2026-05-05 17:25 38.62483 -2.66568 29923 ft 561 kts 68°
2026-05-05 17:26 38.65225 -2.57212 29926 ft 562 kts 68°
2026-05-05 17:26 38.67961 -2.47858 29928 ft 562 kts 68°
2026-05-05 17:27 38.70673 -2.38462 29926 ft 563 kts 68°
2026-05-05 17:27 38.73366 -2.29048 29926 ft 563 kts 68°
2026-05-05 17:28 38.76071 -2.19639 29924 ft 563 kts 68°
2026-05-05 17:28 38.78784 -2.10218 29915 ft 563 kts 68°
2026-05-05 17:29 38.81492 -2.00793 29916 ft 564 kts 68°
2026-05-05 17:29 38.84186 -1.91341 29916 ft 564 kts 68°
2026-05-05 17:30 38.86834 -1.81917 29913 ft 565 kts 69°
2026-05-05 17:30 38.89503 -1.72436 29915 ft 565 kts 69°
2026-05-05 17:31 38.92187 -1.62938 29910 ft 566 kts 69°
2026-05-05 17:31 38.94870 -1.53437 29905 ft 566 kts 69°
2026-05-05 17:32 38.97517 -1.43903 29896 ft 567 kts 70°
2026-05-05 17:32 39.00127 -1.34353 29897 ft 566 kts 68°
2026-05-05 17:33 39.02957 -1.24896 29895 ft 566 kts 66°
2026-05-05 17:33 39.06135 -1.15631 29888 ft 565 kts 63°
2026-05-05 17:34 39.09490 -1.06549 29885 ft 566 kts 62°
2026-05-05 17:34 39.12855 -0.97388 29876 ft 567 kts 63°
2026-05-05 17:35 39.16181 -0.88168 29869 ft 567 kts 63°
2026-05-05 17:35 39.19495 -0.78942 29865 ft 567 kts 63°
2026-05-05 17:36 39.22792 -0.69709 29861 ft 567 kts 64°
2026-05-05 17:36 39.26083 -0.60448 29847 ft 567 kts 64°
2026-05-05 17:37 39.28581 -0.50849 29852 ft 566 kts 84°
2026-05-05 17:37 39.29107 -0.40740 29833 ft 564 kts 90°
2026-05-05 17:38 39.29448 -0.30626 29834 ft 564 kts 89°
2026-05-05 17:38 39.29937 -0.20528 29841 ft 563 kts 88°
2026-05-05 17:39 39.30499 -0.10517 29839 ft 563 kts 88°
2026-05-05 17:39 39.31050 -0.00443 29837 ft 562 kts 89°
2026-05-05 17:40 39.31502 0.09617 29843 ft 562 kts 89°
2026-05-05 17:40 39.31944 0.19694 29848 ft 563 kts 89°
2026-05-05 17:41 39.32455 0.29787 29843 ft 563 kts 88°
2026-05-05 17:41 39.32979 0.39821 29854 ft 563 kts 88°
2026-05-05 17:42 39.33461 0.49923 29853 ft 563 kts 89°
2026-05-05 17:42 39.33883 0.60031 29861 ft 563 kts 89°
2026-05-05 17:43 39.34316 0.70117 29744 ft 560 kts 89°
2026-05-05 17:43 39.34536 0.75086 29315 ft 549 kts 89°
2026-05-05 17:43 39.34756 0.80001 28777 ft 547 kts 89°
2026-05-05 17:43 39.34973 0.84890 28238 ft 544 kts 89°
2026-05-05 17:44 39.35188 0.89752 27705 ft 540 kts 89°
2026-05-05 17:44 39.35401 0.94585 27179 ft 536 kts 89°
2026-05-05 17:44 39.35608 0.99368 26665 ft 531 kts 89°
2026-05-05 17:44 39.35778 1.04116 26163 ft 526 kts 90°
2026-05-05 17:45 39.35933 1.08817 25667 ft 522 kts 90°
2026-05-05 17:45 39.36097 1.13508 25186 ft 525 kts 89°
2026-05-05 17:45 39.36278 1.18281 24712 ft 538 kts 89°
2026-05-05 17:45 39.36477 1.23134 24239 ft 542 kts 89°
2026-05-05 17:46 39.36685 1.27955 23778 ft 536 kts 88°
2026-05-05 17:46 39.36893 1.32669 23282 ft 526 kts 88°
2026-05-05 17:46 39.37099 1.37334 22309 ft 513 kts 89°
2026-05-05 17:46 39.37332 1.41873 21316 ft 502 kts 86°
2026-05-05 17:47 39.37785 1.46299 20363 ft 493 kts 82°
2026-05-05 17:47 39.38369 1.50620 19435 ft 484 kts 81°
2026-05-05 17:47 39.38984 1.54869 18539 ft 477 kts 81°
2026-05-05 17:47 39.39586 1.59046 17571 ft 469 kts 82°
2026-05-05 17:48 39.39968 1.61772 16910 ft 462 kts 82°
2026-05-05 17:48 39.40518 1.65823 15933 ft 453 kts 82°
2026-05-05 17:48 39.41041 1.69798 14991 ft 444 kts 82°
2026-05-05 17:48 39.41547 1.73707 14066 ft 436 kts 82°
2026-05-05 17:49 39.42037 1.77537 13099 ft 429 kts 82°
2026-05-05 17:49 39.42517 1.81312 12125 ft 421 kts 82°
2026-05-05 17:49 39.42987 1.85019 11166 ft 414 kts 81°
2026-05-05 17:49 39.43453 1.88651 10524 ft 403 kts 81°
2026-05-05 17:50 39.43916 1.92227 10232 ft 403 kts 81°
2026-05-05 17:50 39.44383 1.95806 10022 ft 405 kts 81°
2026-05-05 17:50 39.44842 1.99339 9345 ft 389 kts 81°
2026-05-05 17:50 39.45293 2.02712 8632 ft 372 kts 77°
2026-05-05 17:51 39.45969 2.05887 8267 ft 360 kts 71°
2026-05-05 17:51 39.46756 2.08884 8096 ft 343 kts 69°
2026-05-05 17:51 39.47533 2.11711 8022 ft 325 kts 69°
2026-05-05 17:51 39.48263 2.14355 7986 ft 308 kts 69°
2026-05-05 17:52 39.48972 2.16926 7972 ft 301 kts 69°
2026-05-05 17:52 39.49674 2.19487 7969 ft 303 kts 69°
2026-05-05 17:52 39.50371 2.22064 7969 ft 303 kts 70°
2026-05-05 17:52 39.51062 2.24647 7967 ft 304 kts 70°
2026-05-05 17:53 39.51669 2.26940 7967 ft 304 kts 70°
2026-05-05 17:53 39.52350 2.29535 7968 ft 304 kts 70°
2026-05-05 17:53 39.53027 2.32125 7960 ft 301 kts 70°
2026-05-05 17:53 39.53701 2.34641 7959 ft 291 kts 69°
2026-05-05 17:54 39.54414 2.37065 7964 ft 286 kts 68°
2026-05-05 17:54 39.55146 2.39466 7971 ft 287 kts 67°
2026-05-05 17:54 39.55887 2.41867 7977 ft 287 kts 67°
2026-05-05 17:54 39.56632 2.44272 7964 ft 286 kts 67°
2026-05-05 17:55 39.57376 2.46664 7967 ft 288 kts 67°
2026-05-05 17:55 39.58128 2.49070 7971 ft 287 kts 67°
2026-05-05 17:55 39.58868 2.51435 7972 ft 287 kts 67°
2026-05-05 17:55 39.59618 2.53830 7969 ft 287 kts 67°
2026-05-05 17:56 39.60381 2.56261 7529 ft 295 kts 66°
2026-05-05 17:56 39.61156 2.58754 7001 ft 300 kts 67°
2026-05-05 17:56 39.61938 2.61283 6484 ft 303 kts 66°
2026-05-05 17:56 39.62629 2.63838 6227 ft 297 kts 76°
2026-05-05 17:57 39.63087 2.66402 6091 ft 285 kts 72°
2026-05-05 17:57 39.63719 2.68782 6031 ft 276 kts 68°
2026-05-05 17:57 39.64404 2.71096 6007 ft 274 kts 67°
2026-05-05 17:57 39.65055 2.73257 5999 ft 275 kts 67°
2026-05-05 17:58 39.65760 2.75560 5990 ft 275 kts 67°
2026-05-05 17:58 39.66515 2.77846 5980 ft 275 kts 62°
2026-05-05 17:58 39.67363 2.80037 5968 ft 267 kts 61°
2026-05-05 17:58 39.68175 2.82135 5970 ft 253 kts 62°
2026-05-05 17:59 39.68933 2.84100 5968 ft 236 kts 62°
2026-05-05 17:59 39.69662 2.86003 5974 ft 237 kts 62°
2026-05-05 17:59 39.70401 2.87916 5972 ft 237 kts 62°
2026-05-05 17:59 39.71144 2.89828 5974 ft 237 kts 61°
2026-05-05 18:00 39.71879 2.91720 5971 ft 238 kts 62°
2026-05-05 18:00 39.72627 2.93642 5970 ft 239 kts 62°
2026-05-05 18:00 39.73372 2.95566 5979 ft 238 kts 64°
2026-05-05 18:00 39.73701 2.97659 5797 ft 243 kts 101°
2026-05-05 18:01 39.72960 2.99518 5485 ft 228 kts 145°
2026-05-05 18:01 39.71584 3.00205 5166 ft 206 kts 190°
2026-05-05 18:01 39.70263 2.99703 4843 ft 196 kts 208°
2026-05-05 18:01 39.68978 2.98977 4226 ft 207 kts 209°
2026-05-05 18:02 39.67643 2.98174 3613 ft 216 kts 210°
2026-05-05 18:02 39.66318 2.97310 3269 ft 206 kts 216°
2026-05-05 18:02 39.65342 2.96108 3119 ft 186 kts 238°
2026-05-05 18:02 39.64642 2.94736 3061 ft 178 kts 239°
2026-05-05 18:03 39.63933 2.93429 3019 ft 177 kts 237°
2026-05-05 18:03 39.63216 2.92123 2913 ft 181 kts 238°
2026-05-05 18:03 39.62507 2.90762 2660 ft 180 kts 240°
2026-05-05 18:03 39.61845 2.89390 2386 ft 180 kts 239°
2026-05-05 18:04 39.61188 2.88028 2163 ft 176 kts 239°
2026-05-05 18:04 39.60548 2.86695 1955 ft 170 kts 239°
2026-05-05 18:04 39.59941 2.85410 1721 ft 167 kts 239°
2026-05-05 18:04 39.59350 2.84166 1556 ft 156 kts 239°
2026-05-05 18:05 39.58779 2.82964 1301 ft 158 kts 238°
2026-05-05 18:05 39.58220 2.81779 1058 ft 154 kts 237°
2026-05-05 18:05 39.57660 2.80606 852 ft 155 kts 237°
2026-05-05 18:05 39.57099 2.79427 623 ft 151 kts 237°
2026-05-05 18:06 39.56548 2.78270 368 ft 152 kts 237°
2026-05-05 18:06 39.56195 2.77501 261 ft 141 kts 238°
2026-05-05 18:06 39.55510 2.76089 66 ft 137 kts 237°
2026-05-05 18:06 39.55045 2.75121 30 ft 111 kts 238°
2026-05-05 18:07 39.54735 2.74461 36 ft 63 kts 239°
2026-05-05 18:07 39.54590 2.74145 37 ft 12 kts 247°
2026-05-05 18:07 39.54564 2.74038 37 ft 13 kts 258°
2026-05-05 18:07 39.54554 2.73948 36 ft 10 kts 264°
2026-05-05 18:08 39.54551 2.73857 36 ft 10 kts 269°
2026-05-05 18:08 39.54551 2.73779 36 ft 6 kts 274°
2026-05-05 18:08 39.54558 2.73720 36 ft 7 kts 283°
2026-05-05 18:08 39.54582 2.73683 37 ft 5 kts 349°
2026-05-05 18:09 39.54599 2.73689 37 ft 5 kts 31°
2026-05-05 18:09 39.54618 2.73744 37 ft 10 kts 71°
2026-05-05 18:09 39.54645 2.73827 37 ft 11 kts 60°
2026-05-05 18:09 39.54684 2.73912 37 ft 12 kts 59°
2026-05-05 18:10 39.54738 2.73967 37 ft 8 kts 357°
2026-05-05 18:10 39.54791 2.73956 37 ft 7 kts 25°
2026-05-05 18:10 39.54839 2.73990 37 ft 8 kts
2026-05-05 18:10 39.54892 2.73964 37 ft 9 kts 329°
2026-05-05 18:11 39.54948 2.73918 37 ft 10 kts 326°
2026-05-05 18:11 39.55007 2.73870 37 ft 11 kts 328°
2026-05-05 18:11 39.55065 2.73824 37 ft 7 kts 328°
2026-05-05 18:11 39.55110 2.73788 37 ft 8 kts 328°
2026-05-05 18:12 39.55161 2.73747 37 ft 9 kts 327°
2026-05-05 18:12 39.55171 2.73680 37 ft 8 kts 257°
2026-05-05 18:12 39.55194 2.73625 37 ft 8 kts 329°
2026-05-05 18:12 39.55243 2.73587 37 ft 9 kts 328°
2026-05-05 18:13 39.55298 2.73543 37 ft 10 kts 328°
2026-05-05 18:13 39.55366 2.73489 34 ft 13 kts 328°
2026-05-05 18:13 39.55422 2.73434 32 ft 8 kts 291°
2026-05-05 18:13 39.55404 2.73364 32 ft 9 kts 238°
2026-05-05 18:14 39.55370 2.73292 31 ft 10 kts 239°
2026-05-05 18:14 39.55334 2.73215 31 ft 10 kts 238°
2026-05-05 18:14 39.55294 2.73133 31 ft 11 kts 238°
2026-05-05 18:14 39.55254 2.73048 31 ft 11 kts 238°
2026-05-05 18:15 39.55212 2.72957 31 ft 12 kts 239°
2026-05-05 18:15 39.55167 2.72862 31 ft 13 kts 238°
2026-05-05 18:15 39.55121 2.72764 31 ft 13 kts 238°
2026-05-05 18:15 39.55073 2.72664 31 ft 13 kts 239°
2026-05-05 18:16 39.55035 2.72581 31 ft 11 kts 241°
2026-05-05 18:16 39.55004 2.72511 31 ft 5 kts 231°
2026-05-05 18:16 39.54991 2.72502 32 ft 2 kts 196°
2026-05-05 18:16 39.54971 2.72509 32 ft 4 kts 144°
2026-05-05 18:17 39.54955 2.72522 33 ft 2 kts 158°
2026-05-05 18:17 39.54942 2.72522 33 ft 1 kts 188°
2026-05-05 18:17 39.54941 2.72522 33 ft 0 kts 188°
2026-05-05 18:19 39.55095 2.72902 34 ft 0 kts 167°